Temperature
4 5 5 5 6 6 6 6 6 6 6 6 6 6 6 6 7 7 7 7 7 8 8 8 8 8 8 8 8 8 8 8 8 8 7 7 7 7 7 7 7 7 7
3 4 4 5 5 5 5 5 6 6 6 6 6 6 6 6 6 6 6 7 7 7 7 7 7 7 8 7 8 7 7 7 7 7 7 6 6 6 6 6 6 7 7
2 3 3 4 4 4 4 5 5 5 5 5 5 5 5 5 5 5 6 6 6 6 6 6 7 7 7 7 7 7 7 7 7 7 7 6 6 5 5 5 6 6 6
1 2 2 3 3 3 4 4 4 4 4 4 4 4 4 4 5 5 5 5 5 5 6 6 6 6 6 7 7 7 7 7 7 6 6 6 6 5 5 5 5 5 6
1 1 2 2 2 2 3 3 3 4 4 4 3 3 4 4 4 4 4 4 4 5 5 5 5 5 5 6 6 6 6 6 6 6 6 6 6 6 5 4 5 5 5
0 1 1 1 2 2 2 2 3 3 3 3 3 3 3 3 3 3 3 3 4 4 4 4 4 4 5 5 5 5 5 5 5 5 6 6 6 6 5 5 4 4 5
-0 -0 0 1 1 1 1 1 2 2 2 2 2 2 2 3 3 3 3 3 3 3 3 4 4 4 4 4 4 4 4 4 5 5 5 5 5 5 5 5 4 4 4
-1 -1 -1 -0 0 0 0 1 1 1 1 1 1 1 2 2 2 2 2 3 3 3 3 3 3 3 3 3 4 3 4 4 4 4 4 4 4 4 4 4 4 3 3
-2 -1 -1 -1 -0 -0 -0 -0 0 0 0 1 1 1 1 1 1 1 2 2 2 2 2 2 3 3 3 3 3 3 3 3 3 3 3 4 4 4 4 4 4 4 2
-2 -2 -2 -1 -1 -1 -1 -1 -0 -0 -0 -0 -0 -0 -0 0 0 0 1 1 1 1 2 2 2 2 2 2 2 2 2 2 3 3 3 3 3 3 3 3 3 3 3
-3 -3 -2 -2 -2 -2 -2 -1 -1 -1 -1 -1 -1 -1 -1 -1 -0 -0 -0 0 0 1 1 1 1 1 1 1 1 2 2 2 2 2 2 2 2 2 2 2 2 2 2
-3 -3 -3 -3 -3 -2 -2 -2 -2 -2 -2 -1 -1 -1 -1 -1 -1 -1 -1 -0 -0 0 0 1 1 1 1 1 1 1 1 1 1 1 1 2 2 2 2 2 1 1 1
-4 -4 -4 -4 -3 -3 -3 -3 -3 -3 -2 -2 -2 -2 -2 -2 -2 -1 -1 -1 -1 -0 -0 0 0 0 0 0 0 0 0 0 1 1 1 1 1 1 1 1 1 1 1
-4 -4 -4 -4 -4 -4 -4 -3 -3 -3 -3 -3 -3 -2 -2 -2 -2 -2 -2 -2 -1 -1 -1 -1 -1 -0 -0 -0 -0 -0 -0 -0 -0 0 0 0 0 0 0 0 0 0 -0
-5 -5 -5 -5 -5 -4 -4 -4 -4 -4 -4 -3 -3 -3 -3 -3 -3 -3 -3 -2 -2 -2 -2 -2 -1 -1 -1 -1 -1 -1 -1 -1 -1 -1 -0 -0 -0 -0 -0 -1 -0 -1 -1
-6 -6 -6 -6 -5 -5 -5 -4 -4 -4 -4 -4 -4 -4 -4 -4 -4 -3 -3 -3 -3 -3 -3 -2 -2 -2 -2 -2 -2 -2 -2 -1 -1 -1 -1 -1 -1 -1 -1 -1 -1 -1 -1
-6 -6 -6 -6 -6 -6 -5 -5 -5 -5 -5 -5 -4 -4 -4 -4 -4 -4 -4 -4 -4 -4 -3 -3 -3 -3 -3 -3 -2 -2 -2 -2 -2 -2 -2 -2 -2 -2 -2 -2 -2 -2 -2
-6 -6 -6 -6 -6 -6 -6 -6 -5 -5 -5 -5 -5 -5 -5 -5 -5 -5 -4 -4 -4 -4 -4 -4 -4 -4 -4 -3 -3 -3 -3 -3 -3 -3 -3 -3 -2 -2 -2 -2 -2 -2 -2
-7 -7 -7 -7 -7 -7 -6 -6 -6 -6 -6 -6 -6 -6 -6 -6 -5 -5 -5 -5 -5 -5 -5 -5 -5 -5 -4 -4 -4 -4 -4 -4 -4 -4 -4 -3 -3 -3 -3 -3 -3 -3 -3
-7 -7 -7 -7 -7 -7 -7 -7 -7 -7 -7 -7 -7 -7 -6 -6 -6 -6 -5 -5 -5 -5 -5 -5 -5 -5 -5 -5 -5 -5 -5 -4 -4 -4 -4 -4 -4 -4 -4 -4 -4 -4 -4
-8 -8 -8 -8 -8 -8 -8 -7 -7 -7 -7 -7 -7 -7 -7 -7 -6 -6 -6 -6 -6 -6 -6 -6 -6 -6 -6 -6 -6 -6 -5 -5 -5 -5 -5 -5 -5 -5 -5 -5 -5 -5 -4
-8 -8 -8 -8 -8 -8 -8 -8 -8 -8 -8 -8 -7 -7 -7 -7 -7 -7 -7 -7 -7 -7 -7 -7 -7 -7 -6 -6 -6 -6 -6 -6 -6 -6 -6 -6 -6 -6 -5 -5 -5 -5 -5
-9 -9 -9 -9 -9 -9 -9 -9 -8 -8 -8 -8 -8 -8 -8 -8 -8 -8 -7 -8 -8 -8 -8 -8 -7 -7 -7 -7 -7 -7 -7 -7 -7 -7 -6 -6 -6 -6 -6 -6 -6 -6 -6
-9 -9 -9 -9 -9 -9 -9 -9 -9 -9 -9 -9 -8 -8 -8 -8 -8 -8 -8 -8 -8 -8 -8 -8 -8 -8 -8 -8 -8 -8 -8 -8 -8 -7 -7 -7 -7 -7 -7 -7 -7 -7 -7
-10 -10 -10 -10 -10 -10 -10 -10 -10 -10 -9 -9 -9 -9 -9 -9 -9 -9 -9 -9 -9 -9 -9 -9 -9 -9 -9 -9 -9 -9 -9 -8 -8 -8 -8 -8 -8 -8 -8 -8 -8 -8 -8
-10 -11 -11 -11 -11 -11 -10 -10 -10 -10 -10 -10 -10 -10 -10 -10 -10 -9 -9 -9 -9 -9 -9 -9 -9 -9 -9 -9 -9 -9 -9 -9 -9 -9 -9 -9 -9 -9 -9 -9 -9 -9 -8
Wind_Speed
3 2 3 1 1 1 1 2 4 4 4 3 3 3 2 2 2 3 4 5 5 6 6 5 5 5 4 5 5 5 6 5 5 5 5 4 5 5 5 6 7 8 8
4 4 3 2 0 1 1 2 2 4 4 4 3 3 2 1 2 2 3 4 5 6 6 5 4 4 4 5 5 6 4 4 4 4 5 3 2 2 3 3 4 5 6
2 3 3 3 1 0 1 1 1 2 3 4 3 3 2 2 1 1 1 2 4 5 5 5 5 4 5 6 6 6 5 6 3 2 4 5 4 2 1 2 2 3 4
2 3 3 3 2 2 1 1 1 2 3 4 4 5 4 3 2 2 2 1 3 3 4 5 5 5 4 5 5 5 3 6 5 2 1 2 4 4 2 0 1 2 2
2 2 3 3 3 2 1 1 1 1 2 4 4 5 4 3 2 2 2 2 1 2 4 4 4 4 4 5 5 4 3 4 5 4 2 2 2 2 3 3 1 0 0
3 3 3 3 3 2 1 0 1 1 1 3 4 5 5 4 4 3 3 2 2 1 2 4 4 4 4 4 5 5 4 4 4 3 3 4 4 3 3 3 3 2 1
3 4 4 3 3 3 2 2 0 1 1 2 4 4 5 5 5 5 4 3 2 2 3 3 4 4 4 4 4 4 4 5 5 4 3 3 3 3 3 4 3 1 1
3 4 4 3 2 2 2 2 1 1 1 2 3 4 4 4 3 4 4 4 4 3 3 4 4 4 4 4 4 4 3 4 4 4 3 2 2 3 3 4 4 2 1
4 3 4 4 3 2 1 1 1 1 1 2 2 3 3 3 3 3 3 3 3 3 3 4 4 4 4 5 5 3 4 4 4 4 3 2 2 2 2 3 4 5 4
5 5 4 4 4 3 2 1 1 1 1 2 2 2 3 3 3 2 3 3 3 3 4 4 4 4 4 5 4 3 4 4 4 3 4 3 2 2 3 3 3 3 4
5 4 4 4 4 3 3 2 2 2 2 2 2 2 3 2 2 2 3 3 3 4 4 5 5 5 5 4 4 5 5 5 4 4 4 4 3 3 3 3 3 2 3
4 4 3 4 4 4 4 3 3 3 3 2 2 2 3 2 2 3 3 3 3 4 5 5 5 5 5 5 6 6 6 6 6 5 5 5 4 4 4 4 4 4 3
5 4 4 4 4 4 4 4 3 4 4 3 2 2 2 2 3 3 3 3 3 3 3 4 5 6 6 6 6 7 7 7 7 6 6 6 5 5 4 4 4 4 3
4 4 4 5 5 5 4 4 4 3 3 3 2 2 2 3 3 3 3 3 3 3 3 4 4 5 6 6 6 6 6 6 6 6 6 6 7 7 6 5 6 5 4
4 4 4 5 5 5 6 5 4 4 3 3 2 3 3 2 2 3 2 2 2 2 3 3 3 3 4 5 6 6 6 6 6 5 5 6 7 8 7 6 6 6 5
4 4 4 5 5 6 6 5 4 4 3 3 3 3 2 2 2 2 2 2 2 1 2 3 3 3 4 5 6 5 5 5 6 6 5 5 6 7 8 9 9 8 7
4 4 4 5 5 6 5 4 4 4 3 3 4 3 2 2 2 2 2 2 3 2 3 3 3 4 4 5 6 6 5 5 5 6 5 5 5 5 5 6 6 7 8
4 4 5 5 5 5 4 4 3 3 3 4 4 4 3 2 2 2 3 3 3 3 3 3 3 3 3 5 5 5 3 4 4 5 6 6 5 5 5 4 4 5 5
4 4 5 5 5 5 4 4 3 3 3 4 4 4 3 3 3 3 3 3 3 3 3 3 4 4 4 5 5 4 3 3 4 4 5 5 5 7 7 5 5 5 4
4 4 4 4 4 5 4 3 4 3 4 5 5 5 3 3 3 4 3 3 3 3 3 3 3 3 3 5 5 5 3 3 3 3 4 6 7 8 8 6 6 6 5
4 4 4 4 4 4 4 4 4 5 5 5 5 4 3 3 3 3 2 2 2 2 2 3 2 3 3 5 6 6 3 3 3 3 3 4 8 9 9 8 6 7 5
4 4 4 5 4 4 3 4 5 5 5 4 4 4 3 3 2 2 2 2 2 2 3 2 2 2 3 4 5 6 5 4 3 4 3 4 7 8 8 7 6 6 5
4 4 4 5 5 4 3 4 6 5 4 4 4 4 3 2 2 2 2 2 2 3 3 3 3 2 2 3 6 6 6 5 3 3 5 6 7 7 5 6 6 5 3
4 3 3 4 5 5 4 5 5 4 4 4 4 3 2 2 1 1 2 2 3 3 3 3 3 3 3 2 2 2 3 4 4 3 5 6 5 4 4 4 4 3 3
4 3 3 4 5 5 5 5 4 3 3 3 3 3 2 1 1 1 2 2 3 4 4 4 4 3 3 4 5 3 3 3 3 2 2 2 2 2 2 2 2 2 3
3 3 4 4 5 4 5 5 4 3 2 2 2 2 2 1 1 1 2 3 2 3 3 3 3 3 4 5 6 6 6 6 5 3 3 3 3 4 4 4 3 3 3
Wind_Direction
292 337 345 330 71 96 136 166 169 166 156 161 170 165 177 171 124 104 122 137 143 146 140 141 142 141 148 151 141 136 136 127 127 112 95 59 54 65 71 82 85 79 77
334 339 351 359 52 160 173 166 178 176 171 177 182 178 172 168 131 99 105 133 141 149 150 138 150 150 149 149 149 142 146 145 147 136 131 117 57 31 47 68 86 81 79
321 328 332 335 346 331 215 201 188 174 175 167 146 135 111 87 92 150 148 113 138 149 147 148 154 152 154 164 166 160 154 161 169 141 143 151 176 166 24 41 80 88 84
327 334 329 330 316 279 243 192 181 165 170 160 156 157 165 175 199 191 172 116 132 139 142 151 158 153 152 163 172 165 164 161 167 168 93 116 143 152 158 342 31 72 87
326 336 331 312 304 296 266 210 181 168 164 165 162 168 174 176 151 149 145 162 137 141 141 148 153 155 159 159 164 161 160 166 165 165 155 113 99 103 149 173 194 29 6
330 335 344 350 344 353 11 301 178 190 175 170 171 175 174 170 155 155 171 182 187 151 156 159 156 160 164 163 169 168 172 174 162 156 155 151 154 159 146 161 177 193 234
347 355 354 349 347 352 3 14 182 224 202 186 185 188 186 180 177 180 184 186 192 196 192 175 170 174 172 163 164 167 184 178 169 171 175 170 166 154 147 147 154 165 208
348 354 353 349 341 341 352 358 0 310 240 206 209 197 193 189 192 192 191 194 203 206 193 185 177 176 173 170 169 171 191 181 181 181 171 175 180 162 157 153 150 151 194
339 341 348 352 344 335 310 311 342 328 270 233 225 209 195 191 196 202 197 199 202 199 190 187 179 174 177 176 173 184 192 182 189 187 182 184 191 172 169 156 158 163 188
345 342 342 343 342 334 325 332 335 325 300 238 228 221 215 211 204 201 206 209 206 193 187 188 186 178 180 179 175 189 190 182 192 188 181 190 196 181 171 168 170 170 178
325 329 334 335 339 347 352 346 340 336 332 294 252 227 229 219 205 210 219 218 209 196 193 196 192 190 188 185 187 196 183 187 196 196 193 200 194 187 184 175 174 172 163
318 322 326 337 347 348 345 328 321 322 314 303 286 241 235 225 217 225 229 224 218 203 198 196 195 197 196 194 200 197 189 192 199 201 198 205 199 198 194 185 188 189 179
321 328 338 340 337 332 330 322 313 310 312 308 284 275 247 231 231 233 232 224 218 211 198 192 196 201 201 202 206 199 194 197 202 202 203 205 197 205 204 195 195 193 188
317 330 337 334 332 330 325 313 305 310 317 317 289 268 262 246 242 241 232 225 218 213 207 208 207 206 206 207 203 198 198 201 204 205 208 208 204 207 205 205 197 189 182
318 326 327 325 328 330 329 323 315 322 323 320 297 274 274 274 259 245 233 230 222 222 216 211 209 210 210 209 201 197 198 199 203 208 214 215 212 213 212 215 200 190 189
300 313 318 320 321 321 323 326 328 324 322 311 298 291 282 279 268 250 229 219 217 217 205 204 201 205 218 215 212 209 201 202 205 211 215 219 217 221 225 226 218 205 200
286 299 302 304 309 308 311 311 313 323 319 309 307 308 296 288 288 274 243 225 219 211 208 211 202 211 226 220 219 221 211 206 209 211 211 222 222 221 214 224 227 224 221
288 294 296 299 302 301 306 307 315 321 315 309 308 305 297 282 280 270 244 233 227 216 217 220 214 216 227 223 221 221 211 204 211 215 212 211 211 215 211 205 213 222 225
278 285 289 293 301 304 307 309 314 316 314 307 301 297 291 283 272 261 251 238 229 225 225 223 214 214 227 227 225 217 203 213 216 220 216 211 208 216 214 208 208 221 231
292 295 300 304 306 309 314 309 304 305 301 298 296 294 289 273 263 256 253 243 232 230 232 235 222 212 218 228 229 225 213 216 218 217 216 217 217 219 216 208 203 215 221
292 301 302 301 299 307 311 301 300 293 294 298 300 298 287 270 263 263 253 232 226 223 225 229 238 226 230 227 228 230 222 214 213 219 218 220 223 227 226 223 214 219 211
300 301 300 300 303 305 300 295 292 295 303 302 299 295 284 274 266 251 249 230 214 210 222 222 234 243 244 243 234 230 236 232 219 223 224 225 228 231 229 227 224 218 202
289 295 294 299 305 303 291 287 292 303 307 305 300 295 290 280 264 234 229 221 214 213 220 217 226 243 252 248 243 239 240 240 238 234 231 236 233 232 229 228 218 200 187
282 287 291 295 303 306 298 283 293 301 302 301 305 306 300 292 284 259 232 219 217 219 224 222 227 235 239 240 243 238 249 244 247 245 240 235 234 236 230 221 208 199 195
281 277 274 280 289 302 301 297 299 304 304 303 306 310 311 298 293 279 253 242 235 229 223 222 224 224 234 248 252 245 238 232 235 222 207 197 203 212 210 195 194 190 186
285 287 283 284 290 299 301 304 306 299 297 300 305 307 314 309 299 297 312 306 285 276 261 250 243 248 252 252 247 245 245 240 226 207 200 204 209 214 215 206 202 202 202
Height
1495 1494 1493 1492 1493 1494 1495 1496 1498 1499 1501 1502 1503 1505 1506 1508 1510 1512 1514 1516 1517 1519 1521 1523 1525 1527 1529 1530 1532 1535 1537 1539 1542 1545 1547 1550 1552 1553 1554 1555 1557 1558 1559
1492 1491 1490 1490 1490 1490 1491 1492 1493 1495 1497 1499 1500 1502 1503 1505 1507 1509 1511 1512 1514 1516 1517 1519 1521 1523 1525 1527 1529 1532 1533 1536 1539 1541 1543 1547 1551 1551 1552 1554 1555 1556 1557
1490 1489 1488 1488 1488 1488 1488 1489 1490 1492 1494 1496 1498 1499 1501 1502 1503 1505 1507 1509 1510 1512 1514 1516 1518 1520 1522 1523 1525 1528 1530 1532 1535 1538 1540 1542 1544 1548 1550 1551 1553 1554 1555
1488 1487 1487 1486 1486 1486 1486 1487 1488 1489 1490 1492 1494 1495 1496 1497 1498 1501 1503 1505 1507 1509 1511 1512 1514 1516 1518 1520 1522 1525 1527 1530 1531 1534 1537 1539 1540 1542 1545 1548 1549 1551 1552
1487 1486 1485 1485 1484 1484 1484 1485 1485 1486 1487 1489 1490 1492 1493 1494 1496 1498 1500 1502 1503 1505 1507 1509 1511 1512 1514 1516 1518 1520 1523 1526 1528 1530 1532 1535 1537 1538 1539 1542 1545 1547 1549
1485 1484 1484 1483 1483 1482 1482 1482 1483 1483 1484 1485 1487 1488 1489 1491 1492 1494 1496 1498 1500 1501 1503 1505 1507 1509 1511 1512 1515 1517 1519 1522 1525 1527 1529 1531 1533 1534 1536 1537 1540 1542 1545
1484 1482 1481 1481 1480 1480 1480 1480 1480 1481 1482 1483 1484 1485 1486 1487 1488 1490 1492 1493 1495 1497 1499 1501 1503 1505 1507 1508 1511 1514 1515 1518 1521 1523 1526 1528 1530 1532 1534 1535 1536 1539 1541
1483 1481 1480 1479 1479 1478 1478 1477 1478 1478 1479 1480 1480 1482 1483 1484 1485 1487 1488 1490 1491 1493 1495 1497 1499 1501 1503 1505 1508 1510 1512 1515 1517 1519 1522 1524 1527 1529 1530 1532 1533 1535 1537
1482 1481 1479 1478 1478 1477 1477 1476 1475 1476 1476 1477 1478 1479 1479 1480 1481 1483 1484 1486 1488 1490 1492 1493 1495 1497 1499 1501 1504 1505 1508 1511 1513 1515 1518 1520 1523 1524 1526 1528 1530 1532 1532
1481 1480 1479 1478 1477 1476 1475 1474 1474 1473 1473 1474 1475 1475 1476 1477 1478 1479 1480 1482 1484 1486 1488 1489 1491 1494 1496 1497 1499 1501 1504 1507 1509 1511 1514 1516 1518 1520 1522 1524 1526 1528 1529
1481 1479 1478 1477 1476 1475 1474 1473 1472 1471 1471 1471 1471 1472 1473 1474 1475 1476 1477 1478 1480 1482 1484 1485 1487 1489 1491 1493 1495 1497 1499 1502 1504 1507 1509 1511 1514 1516 1517 1519 1521 1523 1524
1480 1478 1477 1475 1474 1473 1471 1470 1470 1469 1468 1468 1468 1469 1470 1470 1471 1472 1473 1474 1476 1477 1479 1481 1483 1485 1487 1489 1491 1493 1495 1497 1499 1502 1504 1507 1509 1511 1513 1514 1516 1518 1519
1479 1477 1475 1473 1472 1471 1469 1468 1468 1467 1466 1466 1465 1466 1466 1466 1467 1468 1469 1470 1471 1473 1475 1476 1478 1480 1482 1485 1487 1489 1490 1493 1495 1497 1500 1502 1504 1506 1508 1509 1511 1513 1514
1477 1475 1473 1471 1470 1468 1467 1466 1465 1464 1464 1463 1462 1462 1462 1463 1463 1464 1465 1466 1467 1468 1470 1472 1474 1476 1478 1480 1482 1484 1486 1488 1490 1493 1495 1498 1499 1501 1503 1504 1506 1508 1509
1475 1473 1472 1470 1468 1466 1464 1463 1462 1462 1461 1460 1459 1459 1459 1459 1459 1460 1460 1461 1462 1464 1466 1467 1469 1471 1472 1474 1477 1479 1481 1483 1485 1488 1490 1492 1494 1496 1498 1500 1501 1503 1504
1473 1472 1470 1468 1466 1464 1462 1461 1459 1459 1458 1457 1456 1455 1455 1455 1455 1455 1456 1457 1458 1460 1461 1462 1464 1466 1467 1470 1472 1474 1476 1478 1480 1482 1484 1487 1489 1490 1492 1494 1496 1498 1499
1471 1469 1468 1466 1464 1462 1460 1458 1457 1456 1455 1454 1452 1452 1451 1451 1451 1452 1453 1453 1454 1456 1457 1459 1459 1461 1463 1465 1467 1469 1471 1473 1475 1477 1479 1480 1482 1485 1486 1488 1490 1491 1493
1468 1467 1465 1463 1461 1459 1457 1456 1454 1453 1452 1451 1450 1449 1448 1448 1448 1449 1449 1450 1451 1452 1453 1454 1455 1456 1458 1460 1462 1464 1466 1468 1469 1471 1473 1475 1476 1478 1481 1482 1484 1485 1487
1466 1464 1462 1460 1458 1456 1454 1453 1451 1450 1449 1447 1447 1446 1445 1444 1444 1444 1445 1446 1447 1448 1449 1450 1451 1452 1453 1456 1458 1459 1461 1462 1464 1466 1468 1469 1471 1473 1476 1477 1478 1479 1481
1462 1460 1458 1456 1454 1453 1451 1450 1448 1447 1446 1444 1443 1442 1442 1441 1441 1441 1441 1442 1443 1444 1445 1446 1447 1448 1449 1451 1453 1455 1456 1457 1458 1460 1462 1464 1466 1468 1470 1471 1472 1473 1475
1458 1456 1454 1452 1451 1449 1448 1446 1445 1444 1442 1441 1440 1439 1438 1437 1437 1437 1438 1439 1440 1440 1441 1442 1443 1444 1446 1447 1449 1450 1451 1452 1454 1455 1457 1459 1461 1463 1464 1466 1467 1468 1470
1454 1453 1451 1449 1447 1446 1444 1442 1441 1440 1439 1438 1437 1436 1435 1434 1434 1434 1434 1435 1436 1437 1437 1438 1439 1440 1442 1443 1444 1446 1447 1448 1449 1450 1452 1454 1456 1458 1459 1461 1462 1463 1465
1451 1449 1447 1445 1444 1442 1441 1439 1438 1437 1436 1434 1433 1432 1431 1431 1431 1431 1431 1432 1432 1433 1433 1434 1435 1436 1437 1439 1440 1441 1442 1444 1445 1446 1448 1450 1451 1453 1454 1455 1457 1458 1459
1447 1445 1443 1442 1440 1439 1438 1436 1435 1434 1432 1431 1430 1429 1428 1428 1428 1427 1428 1428 1428 1429 1430 1430 1431 1432 1433 1434 1435 1436 1437 1439 1440 1442 1443 1445 1446 1447 1448 1450 1451 1452 1454
1444 1442 1440 1438 1437 1436 1434 1433 1432 1431 1429 1428 1427 1426 1425 1425 1424 1424 1424 1424 1425 1425 1426 1426 1428 1428 1428 1429 1430 1432 1433 1434 1436 1437 1438 1439 1440 1441 1443 1444 1446 1447 1449
1440 1438 1437 1435 1434 1432 1431 1430 1429 1428 1427 1425 1424 1423 1422 1421 1421 1421 1421 1421 1422 1422 1423 1423 1424 1424 1425 1426 1427 1428 1430 1431 1432 1433 1433 1434 1435 1436 1438 1439 1441 1442 1444